Sanford, NC

12:57 PM EST on January 19, 2018 (GMT -0500)
Raleigh Executive Jetport

Weather History for KTTA - February, 2013

Change the Weather History Date:

Friday, February 8, 2013

  Actual Average (KHRJ) Record (KHRJ)
Temperature  
Mean Temperature 48 °F -  
Max Temperature 57 °F 51 °F 77 °F (2009)
Min Temperature 40 °F 29 °F 10 °F (1977)
Degree Days  
Heating Degree Days 17    
Moisture  
Dew Point 40 °F    
Average Humidity 79    
Maximum Humidity 96    
Minimum Humidity 48    
Precipitation  
Precipitation 0.60 in - - ()
Sea Level Pressure  
Sea Level Pressure 29.89 in    
Wind  
Wind Speed 11 mph (NW)    
Max Wind Speed 20 mph    
Max Gust Speed 26 mph    
Visibility 10 miles    
Events Rain    
Averages and records for this station are not official NWS values.
T = Trace of Precipitation, MM = Missing Value Source: NWS Daily Summary

Daily Weather History Graph

Daily Weather History Graph

Search for Another Location

Airport or City:

Trip Planner

Search our weather history database for the weather conditions in past years. The results will help you decide how hot, cold, wet, or windy it might be!

Date:

Astronomy

Feb. 08, 2013 Rise Set
Actual Time 7:10 AM EST 5:51 PM EST
Civil Twilight 6:43 AM EST 6:18 PM EST
Nautical Twilight 6:13 AM EST 6:48 PM EST
Astronomical Twilight 5:43 AM EST 7:18 PM EST
Moon 5:35 AM EST (2/8) 4:24 PM EST (2/8)
Length of Visible Light 11h 34m
Length of Day
10h 41m
Waning Crescent, 3% of the Moon is Illuminated
Feb 8
Waning Crescent
Feb 10
New
Feb 17
First Quarter
Feb 25
Full
Mar 4
Last Quarter

Hourly Weather History & Observations

Time (EST) Temp. Windchill Dew Point Humidity Pressure Visibility Wind Dir Wind Speed Gust Speed Precip Events Conditions
12:15 AM 44.4 °F 38.2 °F 43.3 °F 96% 29.97 in 5.0 mi NNE 12.7 mph 17.3 mph 0.06 in Rain Heavy Rain
12:35 AM 44.2 °F 38.0 °F 43.2 °F 96% 29.95 in 5.0 mi NNE 12.7 mph - 0.14 in Rain Heavy Rain
12:55 AM 44.1 °F 37.1 °F 43.0 °F 96% 29.93 in 5.0 mi North 15.0 mph - 0.21 in Rain Heavy Rain
1:15 AM 44.1 °F 37.4 °F 43.0 °F 96% 29.92 in 7.0 mi North 13.8 mph - 0.05 in Rain Rain
1:35 AM 43.9 °F 36.8 °F 42.8 °F 96% 29.90 in 7.0 mi North 15.0 mph 19.6 mph 0.10 in Rain Heavy Rain
1:55 AM 43.9 °F 37.2 °F 42.8 °F 96% 29.89 in 7.0 mi North 13.8 mph 21.9 mph 0.18 in Rain Rain
2:15 AM 44.1 °F 36.8 °F 42.8 °F 95% 29.88 in 10.0 mi North 16.1 mph 23.0 mph 0.04 in Rain Rain
2:35 AM 44.4 °F 37.2 °F 43.2 °F 95% 29.87 in 10.0 mi North 16.1 mph 23.0 mph 0.07 in Rain Rain
2:55 AM 44.6 °F 38.1 °F 43.0 °F 94% 29.87 in 10.0 mi North 13.8 mph 21.9 mph 0.10 in Rain Rain
3:15 AM 44.6 °F 36.9 °F 42.8 °F 93% 29.85 in 7.0 mi North 18.4 mph 26.5 mph 0.04 in Rain Rain
3:35 AM 44.6 °F 37.2 °F 42.8 °F 93% 29.83 in 10.0 mi North 17.3 mph 25.3 mph 0.06 in Rain Rain
3:55 AM 44.2 °F 36.2 °F 42.8 °F 95% 29.82 in 7.0 mi North 19.6 mph 26.5 mph 0.09 in Rain Rain
4:15 AM 43.9 °F 36.8 °F 42.3 °F 94% 29.82 in 10.0 mi North 15.0 mph 23.0 mph 0.02 in Rain Light Rain
4:55 AM 43.3 °F 36.1 °F 41.5 °F 93% 29.82 in 10.0 mi North 15.0 mph 23.0 mph 0.02 in   Overcast
5:15 AM 43.2 °F 36.6 °F 41.4 °F 93% 29.82 in 10.0 mi North 12.7 mph 23.0 mph N/A   Overcast
5:35 AM 43.3 °F 38.1 °F 41.5 °F 93% 29.83 in 10.0 mi NNW 9.2 mph - N/A   Light Drizzle
5:55 AM 43.2 °F 37.9 °F 41.4 °F 93% 29.83 in 10.0 mi NNW 9.2 mph - N/A   Light Drizzle
6:15 AM 43.0 °F 37.7 °F 41.2 °F 93% 29.84 in 10.0 mi NNW 9.2 mph - N/A Rain Rain
6:35 AM 42.8 °F 37.5 °F 41.0 °F 93% 29.84 in 10.0 mi NW 9.2 mph - N/A   Light Drizzle
6:55 AM 42.1 °F 37.1 °F 40.1 °F 93% 29.84 in 10.0 mi NNW 8.1 mph - N/A   Overcast
7:15 AM 41.4 °F 35.7 °F 39.6 °F 93% 29.84 in 10.0 mi NNW 9.2 mph - N/A   Overcast
7:35 AM 40.8 °F 36.2 °F 38.8 °F 93% 29.86 in 10.0 mi NW 6.9 mph - N/A   Overcast
7:55 AM 40.5 °F 35.1 °F 38.3 °F 92% 29.86 in 10.0 mi NNW 8.1 mph - N/A   Overcast
8:35 AM 40.3 °F 34.4 °F 37.9 °F 91% 29.87 in 10.0 mi NNW 9.2 mph - N/A   Overcast
9:15 AM 40.6 °F 34.3 °F 38.3 °F 91% 29.87 in 10.0 mi NNW 10.4 mph - N/A   Overcast
9:35 AM 40.6 °F 34.3 °F 38.1 °F 91% 29.88 in 10.0 mi NNW 10.4 mph - N/A   Overcast
9:55 AM 41.0 °F 34.7 °F 38.3 °F 90% 29.88 in 10.0 mi NW 10.4 mph 16.1 mph N/A   Overcast
10:15 AM 41.2 °F 35.5 °F 38.3 °F 89% 29.89 in 10.0 mi NW 9.2 mph - N/A   Overcast
10:35 AM 41.4 °F 35.7 °F 38.5 °F 89% 29.90 in 10.0 mi NW 9.2 mph - N/A   Overcast
10:55 AM 41.9 °F 35.9 °F 38.8 °F 89% 29.91 in 10.0 mi WNW 10.4 mph - N/A   Overcast
11:15 AM 42.8 °F 40.1 °F 39.2 °F 87% 29.90 in 10.0 mi West 4.6 mph - N/A   Overcast
11:35 AM 44.2 °F 41.0 °F 40.5 °F 87% 29.89 in 10.0 mi West 5.8 mph - N/A   Overcast
11:55 AM 45.1 °F 42.0 °F 40.6 °F 84% 29.89 in 10.0 mi WNW 5.8 mph - N/A   Overcast
12:15 PM 45.9 °F 41.2 °F 41.2 °F 84% 29.88 in 10.0 mi West 9.2 mph - N/A   Overcast
12:35 PM 46.2 °F 43.3 °F 41.2 °F 83% 29.87 in 10.0 mi West 5.8 mph - N/A   Overcast
12:55 PM 47.3 °F - 41.9 °F 82% 29.86 in 10.0 mi West 6.9 mph - N/A   Overcast
1:15 PM 49.1 °F - 42.4 °F 78% 29.86 in 10.0 mi West 6.9 mph - N/A   Overcast
1:35 PM 48.9 °F - 42.3 °F 78% 29.86 in 10.0 mi WSW 6.9 mph - N/A   Overcast
1:55 PM 50.7 °F - 43.7 °F 77% 29.85 in 10.0 mi SW 10.4 mph - N/A   Overcast
2:15 PM 51.8 °F - 43.2 °F 72% 29.85 in 10.0 mi West 5.8 mph 9.2 mph N/A   Scattered Clouds
2:35 PM 53.6 °F - 43.7 °F 69% 29.85 in 10.0 mi West 6.9 mph - N/A   Clear
2:55 PM 54.9 °F - 43.7 °F 66% 29.84 in 10.0 mi West 8.1 mph - N/A   Scattered Clouds
3:15 PM 55.4 °F - 43.3 °F 64% 29.84 in 10.0 mi West 5.8 mph - N/A   Mostly Cloudy
3:35 PM 56.3 °F - 43.3 °F 62% 29.84 in 10.0 mi West 10.4 mph 16.1 mph N/A   Mostly Cloudy
3:55 PM 55.4 °F - 43.5 °F 64% 29.84 in 10.0 mi West 9.2 mph - N/A   Overcast
4:15 PM 55.8 °F - 43.7 °F 64% 29.84 in 10.0 mi West 8.1 mph - N/A   Mostly Cloudy
4:35 PM 55.4 °F - 44.1 °F 66% 29.84 in 10.0 mi WSW 4.6 mph - N/A   Scattered Clouds
4:55 PM 55.4 °F - 44.8 °F 67% 29.85 in 10.0 mi WSW 6.9 mph - N/A   Clear
5:15 PM 55.4 °F - 45.1 °F 68% 29.85 in 10.0 mi WSW 5.8 mph - N/A   Clear
5:35 PM 54.9 °F - 45.0 °F 69% 29.86 in 10.0 mi SW 3.5 mph - N/A   Clear
5:55 PM 52.7 °F - 45.0 °F 75% 29.86 in 10.0 mi SW 4.6 mph - N/A   Clear
6:15 PM 51.1 °F - 44.8 °F 79% 29.87 in 10.0 mi Calm Calm - N/A   Clear
6:35 PM 50.9 °F - 44.8 °F 80% 29.88 in 10.0 mi WSW 4.6 mph - N/A   Clear
6:55 PM 51.1 °F - 44.1 °F 77% 29.89 in 10.0 mi Calm Calm - N/A   Clear
7:15 PM 51.3 °F - 43.2 °F 74% 29.90 in 10.0 mi Calm Calm - N/A   Clear
7:35 PM 47.5 °F - 42.1 °F 82% 29.91 in 10.0 mi WNW 3.5 mph - N/A   Clear
7:55 PM 49.5 °F - 37.9 °F 65% 29.93 in 10.0 mi NW 9.2 mph - N/A   Clear
8:15 PM 51.4 °F - 32.2 °F 48% 29.95 in 10.0 mi NW 13.8 mph 18.4 mph N/A   Clear
8:35 PM 50.2 °F - 32.0 °F 50% 29.96 in 10.0 mi NNW 6.9 mph - N/A   Clear
8:55 PM 48.7 °F - 32.0 °F 52% 29.98 in 10.0 mi NNW 10.4 mph 17.3 mph N/A   Clear
9:15 PM 48.2 °F - 30.7 °F 51% 30.00 in 10.0 mi NW 13.8 mph 19.6 mph N/A   Clear
9:55 PM 45.9 °F 40.0 °F 28.4 °F 51% 30.03 in 10.0 mi NW 12.7 mph 18.4 mph N/A   Clear
10:15 PM 45.5 °F 41.3 °F 27.9 °F 50% 30.04 in 10.0 mi NW 8.1 mph - N/A   Clear
10:35 PM 44.6 °F 40.7 °F 28.2 °F 53% 30.05 in 10.0 mi NW 6.9 mph - N/A   Clear
10:55 PM 43.7 °F 41.1 °F 28.4 °F 55% 30.05 in 10.0 mi WNW 4.6 mph - N/A   Clear
11:15 PM 43.0 °F 41.3 °F 28.4 °F 56% 30.06 in 10.0 mi NW 3.5 mph - N/A   Clear
11:35 PM 42.3 °F 40.5 °F 28.4 °F 58% 30.07 in 10.0 mi WNW 3.5 mph - N/A   Clear
11:55 PM 41.4 °F 38.4 °F 28.6 °F 60% 30.07 in 10.0 mi West 4.6 mph - N/A   Clear